User: anonymous   Login
Location: Unspecified
(0.0000°N, 0.0000°E)
Time: 23:11:18
(UTC+02:00)
Language:

ISS - Orbit

View from above orbital plane
View from above orbital plane
View from above satellite
View from above satellite

Ground track
Ground track

The orbit data is extracted from the following two-line orbital elements,

1 25544U 98067A   14298.69645990  .00016778  00000-0  29235-3 0  3012
2 25544 051.6436 172.6571 0002734 309.1029 169.3951 15.50859373911579
Epoch (UTC): 25 October 2014 16:42:54
Eccentricity: 0.0002734
inclination: 51.6436°
perigee height: 412 km
apogee height: 416 km
right ascension of ascending node: 172.6571°
argument of perigee: 309.1029°
revolutions per day: 15.50859373
mean anomaly at epoch: 169.3951°
orbit number at epoch: 91157

The dashed part of the orbit path shows where the satellite is in the earth's shadow,  

DLR